www.pogodaiklimat.ru

Погода и климат >> Архив погоды >> Норвегия >> Tafjord


ПОГОДА в Tafjord

  • Прогноз погоды в Tafjord
  • Монитор погоды в Tafjord
  • Климат города

АРХИВ ПОГОДЫ в Tafjord

Время (UTC), дата Ветер
(напр.,м/с)
 
Видим.   Явления Облачность Т
(С)
Тd
(С)
f
(%)
Тe
(С)
Тes
(С)
Комфортность P
(гПа)
Po
(гПа)
Тmin
(С)
Tmax
(С)
R
(мм)
R24
(мм)
S
(см)
04 13.01 ЮВ 12
{22}
н/о н/о +3.2 -11.4 33 -3 -3 1032.0 1029.8
05 13.01 ЮВ 15
{24}
н/о н/о +2.6 -11.6 34 -5 -5 1031.8 1029.6
06 13.01 ЮВ 13
{24}
н/о н/о +1.8 -12.3 34 -6 -6 1032.2 1030.0 +1.8 +5.4
08 13.01 ЮВ 14
{23}
н/о н/о +1.5 -12.6 34 -6 -6 1032.0 1029.8
07 13.01 ЮВ 15
{24}
н/о н/о +1.8 -12.7 33 -6 -6 1032.1 1029.9 0.1
09 13.01 ЮВ 14
{25}
н/о н/о +1.3 -12.4 35 -7 -7 1032.1 1029.9
10 13.01 ЮВ 13
{23}
н/о н/о +1.4 -13.0 33 -6 -6 1032.0 1029.8 0.1
11 13.01 ЮВ 12
{23}
н/о н/о +1.3 -13.5 32 -6 -6 1032.3 1030.1 0.4
12 13.01 ЮВ 10
{25}
н/о н/о +0.9 -13.1 34 -6 -6 1031.9 1029.7
14 13.01 ЮВ 13
{19}
н/о н/о +0.8 -13.2 34 -7 -7 1030.4 1028.2
13 13.01 ЮВ 11
{20}
н/о н/о +1.1 -12.9 34 -6 -6 1031.0 1028.8
15 13.01 ЮВ 10
{20}
н/о н/о +1.4 -13.8 31 -5 -5 1029.8 1027.6
16 13.01 ЮВ 12
{20}
н/о н/о +1.8 -14.7 28 -5 -5 1029.4 1027.2
17 13.01 ЮВ 13
{21}
н/о н/о +0.6 -14.5 31 -7 -7 1029.6 1027.4
18 13.01 ЮВ 12
{21}
н/о н/о +0.2 -14.8 31 -7 -7 1029.6 1027.4 +0.2 +2.2
20 13.01 ЮВ 10
{21}
н/о н/о -0.2 -13.3 37 -8 -8 1029.7 1027.5
19 13.01 ЮВ 10
{21}
н/о н/о +0.3 -14.8 31 -7 -7 1029.4 1027.2
21 13.01 ЮВ 10
{18}
н/о н/о +0.1 -14.2 33 -7 -7 1028.8 1026.6
22 13.01 ЮВ 9
{17}
н/о н/о +0.2 -13.4 35 -7 -7 1028.9 1026.7
23 13.01 н/о
00 14.01 ЮВ 9
{21}
н/о н/о +0.7 -12.3 37 -6 -6 1028.7 1026.5
02 14.01 ЮВ 9
{15}
н/о н/о +3.3 -9.6 38 -3 -3 1025.5 1023.3
01 14.01 Ю 9
{15}
н/о н/о +2.3 -10.8 37 -4 -4 1026.9 1024.7
03 14.01 ЮВ 11
{17}
н/о н/о +2.9 -9.6 39 -4 -4 1024.5 1022.3
04 14.01 ЮВ 9
{15}
н/о н/о +4.2 -8.8 38 -1 -1 1023.1 1020.9
05 14.01 ЮВ 9
{16}
н/о н/о +4.7 -8.3 38 -1 -1 1022.1 1019.9
06 14.01 ЮВ 10
{17}
н/о н/о +4.9 -8.2 38 -1 -1 1021.4 1019.2 -0.6 +5.3
08 14.01 Ю 9
{15}
н/о н/о +4.7 -8.3 38 -1 -1 1020.7 1018.5
07 14.01 ЮВ 9
{16}
н/о н/о +4.9 -8.2 38 -0 -0 1021.1 1018.9
09 14.01 ЮВ 8
{14}
н/о н/о +4.4 -8.3 39 -1 -1 1019.8 1017.6
10 14.01 ЮВ 9
{16}
н/о н/о +5.0 -8.8 36 -0 -0 1018.9 1016.7
11 14.01 ЮВ 9
{16}
н/о н/о +4.7 -9.0 36 -1 -1 1018.1 1015.9
12 14.01 Ю 10
{18}
н/о н/о +4.1 -9.6 36 -2 -2 1017.5 1015.3
14 14.01 Ю 10
{17}
н/о н/о +4.3 -9.7 35 -1 -1 1013.9 1011.7
13 14.01 Ю 5
{16}
н/о н/о +3.7 -9.6 37 -0 -0 1016.3 1014.1
15 14.01 Ю 9
{17}
н/о н/о +4.2 -10.6 33 -1 -1 1012.5 1010.3
16 14.01 Ю 10
{18}
н/о н/о +4.0 -11.1 32 -2 -2 1011.4 1009.2
17 14.01 Ю 8
{17}
н/о н/о +3.6 -11.5 32 -2 -2 1011.1 1008.9
18 14.01 Ю 11
{18}
н/о н/о +3.6 -11.1 33 -3 -3 1009.9 1007.7 +3.3 +5.2
20 14.01 Ю 7
{15}
н/о н/о +3.9 -10.8 33 -1 -1 1007.5 1005.3
19 14.01 Ю 7
{16}
н/о н/о +3.6 -10.7 34 -1 -1 1008.9 1006.7
21 14.01 Ю 8
{17}
н/о н/о +3.9 -10.5 34 -1 -1 1006.3 1004.2
22 14.01 н/о
23 14.01 Ю 9
{19}
н/о н/о +4.3 -9.7 35 -1 -1 1003.1 1001.0
00 15.01 Ю 12
{22}
н/о н/о +4.8 -10.0 33 -1 -1 1001.8 999.7
02 15.01 Ю 11
{26}
н/о н/о +4.8 -9.3 35 -1 -1 997.8 995.7
01 15.01 Ю 11
{21}
н/о н/о +4.5 -9.6 35 -1 -1 999.6 997.5
03 15.01 Ю 11
{23}
н/о н/о +5.5 -8.3 36 -0 -0 997.1 995.0
04 15.01 Ю 8
{21}
н/о н/о +5.7 -7.1 39 +1 +1 994.9 992.8
05 15.01 Ю 10
{23}
н/о н/о +5.5 -7.0 40 0 0 994.2 992.1
06 15.01 Ю 12
{26}
н/о н/о +5.7 -6.8 40 -0 -0 993.4 991.3 +3.4 +5.8
08 15.01 Ю 10
{23}
н/о н/о +5.1 -7.3 40 -1 -1 993.0 990.9
07 15.01 Ю 11
{21}
н/о н/о +5.2 -6.9 41 -1 -1 992.8 990.7
09 15.01 Ю 9
{21}
н/о н/о +5.2 -7.6 39 -0 -0 992.7 990.6
10 15.01 Ю 10
{23}
н/о н/о +5.1 -7.7 39 -1 -1 991.6 989.5
11 15.01 Ю 9
{22}
н/о н/о +5.4 -7.7 38 0 0 991.1 989.0
12 15.01 Ю 10
{23}
н/о н/о +5.2 -7.2 40 -0 -0 989.6 987.5
14 15.01 Ю 8
{16}
н/о н/о +5.6 -7.2 39 +1 +1 987.4 985.3 0.1
13 15.01 Ю 7
{22}
н/о н/о +5.6 -7.5 38 +1 +1 988.5 986.4
15 15.01 Ю 9
{22}
н/о н/о +5.3 -7.5 39 0 0 986.4 984.3
16 15.01 ЮВ 5
{20}
н/о н/о +5.4 -7.7 38 +2 +2 985.2 983.1
17 15.01 Ю 6
{18}
н/о н/о +5.5 -7.3 39 +1 +1 983.7 981.6
18 15.01 Ю 8
{22}
н/о н/о +5.3 -7.5 39 0 0 983.2 981.1 +5.0 +5.8
20 15.01 Ю 7
{17}
н/о н/о +5.6 -7.9 37 +1 +1 980.4 978.3
19 15.01 Ю 5
{13}
н/о н/о +5.4 -7.4 39 +2 +2 981.9 979.8
21 15.01 Ю 6
{15}
н/о н/о +5.5 -7.6 38 +1 +1 979.3 977.2
22 15.01 Ю 5
{17}
н/о н/о +5.6 -8.2 36 +2 +2 978.7 976.6
23 15.01 Ю 7
{17}
н/о н/о +4.8 -7.9 39 0 0 978.5 976.4
00 16.01 Ю 11
{23}
н/о н/о +4.7 -8.3 38 -1 -1 977.9 975.8
02 16.01 Ю 6
{14}
н/о н/о +4.3 -8.0 40 -0 -0 976.7 974.6
01 16.01 Ю 4
{20}
н/о н/о +4.3 -8.0 40 +1 +1 977.3 975.2
03 16.01 Ю 6
{14}
н/о н/о +4.8 -7.9 39 +1 +1 975.9 973.8
04 16.01 ЮВ 7
{13}
н/о н/о +5.0 -7.1 41 0 0 975.2 973.1
05 16.01 Ю 8
{13}
н/о н/о +5.0 -7.7 39 0 0 974.3 972.2
06 16.01 Ю 5
{20}
н/о н/о +4.9 -7.8 39 +1 +1 974.0 971.9 +4.1 +5.7
08 16.01 Ю 5
{13}
н/о н/о +4.7 -8.0 39 +1 +1 974.0 971.9
07 16.01 Ю 6
{13}
н/о н/о +5.2 -8.2 37 +1 +1 973.8 971.7
09 16.01 Ю 6
{13}
н/о н/о +4.3 -8.0 40 -0 -0 974.2 972.1
10 16.01 Ю 4
{11}
н/о н/о +4.5 -8.2 39 +1 +1 973.7 971.6
11 16.01 Ю 5
{11}
н/о н/о +4.6 -8.8 37 +1 +1 973.5 971.4
12 16.01 Ю 4
{13}
н/о н/о +4.5 -8.2 39 +1 +1 973.3 971.2
14 16.01 ЮЗ 1
{8}
н/о н/о +3.4 -6.8 47 +3 +3 973.9 971.8
13 16.01 Ю 5
{11}
н/о н/о +4.1 -7.9 41 0 0 973.6 971.5
15 16.01 ЮВ 1
{7}
н/о н/о +2.9 -6.7 49 +2 +2 973.9 971.8
16 16.01 Ю 5
{9}
н/о н/о +3.7 -8.3 41 -1 -1 973.7 971.6
17 16.01 ЮВ 4
{9}
н/о н/о +3.7 -8.6 40 0 0 973.9 971.8
18 16.01 ЮВ 6
{11}
н/о н/о +3.8 -9.1 38 -1 -1 974.5 972.4 +2.9 +5.3
20 16.01 Ю 5
{10}
н/о н/о +3.8 -8.8 39 -0 -0 975.5 973.4
19 16.01 Ю 5
{10}
н/о н/о +3.6 -9.0 39 -1 -1 975.0 972.9
21 16.01 Ю 5
{10}
н/о н/о +3.9 -9.1 38 -0 -0 976.2 974.1
22 16.01 Ю 6
{9}
н/о н/о +3.8 -8.8 39 -1 -1 976.9 974.8
23 16.01 Ю 2
{10}
н/о н/о +2.7 -8.3 44 0 0 977.6 975.5
00 17.01 Ю 3
{10}
н/о н/о +3.5 -8.8 40 +1 +1 977.8 975.7
02 17.01 н/о
01 17.01 Ю 5
{10}
н/о н/о +3.6 -9.3 38 -1 -1 978.9 976.8
03 17.01 Ю 4
{12}
н/о н/о +2.9 -9.3 40 -1 -1 980.2 978.1
04 17.01 н/о
05 17.01 Ю 2
{8}
н/о н/о +2.3 -10.2 39 0 0 981.8 979.7
06 17.01 Ю 6
{12}
н/о н/о +2.4 -10.4 38 -3 -3 982.7 980.6 +1.4 +4.1
08 17.01 ЮВ 3
{9}
н/о н/о +1.6 -10.2 41 -2 -2 984.3 982.2
07 17.01 Ю 5
{10}
н/о н/о +2.1 -10.7 38 -3 -3 983.5 981.4
09 17.01 ЮВ 8
{13}
н/о н/о +1.4 -9.7 43 -5 -5 984.8 982.7
10 17.01 ЮВ 7
{13}
н/о н/о +1.4 -10.3 41 -4 -4 985.5 983.4
11 17.01 Ю 7
{11}
н/о н/о +1.4 -10.3 41 -4 -4 986.1 984.0
12 17.01 Ю 8
{14}
н/о н/о +1.3 -10.1 42 -5 -5 986.3 984.2
14 17.01 Ю 8
{13}
н/о н/о +0.9 -10.5 42 -5 -5 987.5 985.4
13 17.01 Ю 8
{13}
н/о н/о +1.2 -10.8 40 -5 -5 986.8 984.7
15 17.01 Ю 6
{13}
н/о н/о +0.7 -10.7 42 -5 -5 987.9 985.8
16 17.01 Ю 6
{14}
н/о н/о +0.4 -11.0 42 -5 -5 988.5 986.4
17 17.01 Ю 6
{16}
н/о н/о +0.2 -11.1 42 -6 -6 988.6 986.5
18 17.01 Ю 6
{16}
н/о н/о 0.0 -9.9 47 -6 -6 989.2 987.1 0.0 +2.4
20 17.01 Ю 7
{11}
н/о н/о -0.2 -9.8 48 -7 -7 990.0 987.9
19 17.01 Ю 5
{12}
н/о н/о -0.1 -9.7 48 -5 -5 989.7 987.6
21 17.01 Ю 6
{11}
н/о н/о -0.2 -10.1 47 -6 -6 990.2 988.1
22 17.01 Ю 8
{12}
н/о н/о -0.1 -10.0 47 -7 -7 990.1 988.0
23 17.01 Ю 8
{13}
н/о н/о -0.1 -10.0 47 -7 -7 990.1 988.0
00 18.01 н/о -10.8 989.9 987.8
02 18.01 ЮВ 8
{14}
н/о н/о +0.3 -11.6 40 -6 -6 989.8 987.7
01 18.01 ЮВ 8
{14}
н/о н/о +0.1 -11.5 41 -6 -6 989.8 987.7
03 18.01 ЮВ 7
{14}
н/о н/о +0.3 -11.6 40 -6 -6 989.3 987.2
04 18.01 ЮВ 6
{13}
н/о н/о +0.5 -11.8 39 -5 -5 989.4 987.3
05 18.01 ЮВ 7
{13}
н/о н/о +0.2 -12.1 39 -6 -6 989.4 987.3
06 18.01 ЮВ 7
{14}
н/о н/о +0.2 -12.1 39 -6 -6 989.5 987.4 -0.3 +0.6
08 18.01 ЮВ 7
{12}
н/о н/о -0.1 -11.1 43 -6 -6 989.9 987.8
07 18.01 Ю 7
{12}
н/о н/о 0.0 -11.0 43 -6 -6 989.8 987.7
09 18.01 ЮВ 7
{12}
н/о н/о 0.0 -11.3 42 -6 -6 990.1 988.0
10 18.01 ЮВ 5
{12}
н/о н/о +0.3 -12.6 37 -5 -5 990.4 988.3
11 18.01 Ю 5
{10}
н/о н/о +0.6 -12.3 37 -4 -4 990.7 988.6
12 18.01 Ю 5
{12}
н/о н/о +0.5 -12.4 37 -4 -4 990.7 988.6
14 18.01 Ю 6
{12}
н/о н/о +0.6 -12.7 36 -5 -5 991.1 989.0
13 18.01 н/о
15 18.01 н/о -12.3 991.6 989.5
16 18.01 Ю 7
{14}
н/о н/о +0.2 -12.4 38 -6 -6 991.9 989.8
17 18.01 ЮВ 6
{13}
н/о н/о +0.3 -11.6 40 -5 -5 992.4 990.3
18 18.01 Ю 7
{14}
н/о н/о +0.2 -11.7 40 -6 -6 992.6 990.5 -0.2 +0.9
20 18.01 ЮВ 7
{13}
н/о н/о +0.5 -11.5 40 -6 -6 993.5 991.4
19 18.01 ЮВ 6
{13}
н/о н/о +0.5 -11.5 40 -5 -5 993.0 990.9
21 18.01 ЮВ 7
{13}
н/о н/о +0.5 -11.2 41 -6 -6 993.5 991.4
22 18.01 ЮВ 8
{14}
н/о н/о 0.0 -10.4 45 -7 -7 994.0 991.8
23 18.01 ЮВ 8
{14}
н/о н/о -0.2 -10.6 45 -7 -7 994.2 992.0
00 19.01 ЮВ 9
{14}
н/о н/о -0.4 -10.8 45 -8 -8 994.5 992.3
02 19.01 Ю 7
{15}
н/о н/о -0.5 -10.9 45 -7 -7 995.2 993.0
01 19.01 Ю 8
{14}
н/о н/о -0.4 -10.8 45 -7 -7 994.8 992.6
03 19.01 Ю 7
{15}
н/о н/о -0.5 -10.9 45 -7 -7 995.0 992.8
04 19.01 Ю 9
{15}
н/о н/о -0.3 -11.0 44 -7 -7 994.9 992.7
05 19.01 Ю 9
{15}
н/о н/о -0.5 -10.9 45 -8 -8 994.9 992.7
06 19.01 ЮВ 10
{16}
н/о н/о -0.1 -10.8 44 -8 -8 994.8 992.6 -0.8 +0.7
08 19.01 ЮВ 8
{17}
н/о н/о +0.2 -11.7 40 -6 -6 995.5 993.3
07 19.01 ЮВ 9
{16}
н/о н/о 0.0 -10.7 44 -7 -7 995.1 992.9
09 19.01 ЮВ 8
{16}
н/о н/о +0.1 -12.1 39 -6 -6 996.0 993.8
10 19.01 ЮВ 8
{16}
н/о н/о +0.3 -12.0 39 -6 -6 996.6 994.4
11 19.01 ЮВ 8
{15}
н/о н/о +0.3 -12.0 39 -6 -6 996.9 994.7
12 19.01 ЮВ 8
{17}
н/о н/о +0.2 -11.7 40 -6 -6 997.2 995.0
14 19.01 ЮВ 10
{16}
н/о н/о +0.1 -11.8 40 -7 -7 997.3 995.1
13 19.01 ЮВ 9
{17}
н/о н/о +0.2 -11.7 40 -7 -7 997.3 995.1
15 19.01 ЮВ 9
{14}
н/о н/о +0.2 -11.4 41 -7 -7 997.7 995.5
16 19.01 ЮВ 8
{16}
н/о н/о +0.3 -11.0 42 -6 -6 998.1 995.9
17 19.01 ЮВ 9
{14}
н/о н/о +0.7 -11.0 41 -6 -6 998.0 995.8
18 19.01 н/о
20 19.01 ЮВ 4
{13}
н/о н/о +1.1 -10.6 41 -3 -3 998.7 996.5
19 19.01 ЮВ 8
{15}
н/о н/о +0.6 -11.1 41 -6 -6 998.5 996.3
21 19.01 ЮВ 5
{11}
н/о н/о +1.6 -10.5 40 -3 -3 999.0 996.8
22 19.01 ЮВ 5
{13}
н/о н/о +1.4 -10.7 40 -3 -3 999.1 996.9
23 19.01 ЮВ 7
{13}
н/о н/о +2.0 -10.8 38 -4 -4 998.9 996.8
00 20.01 ЮВ 7
{15}
н/о н/о +1.5 -10.9 39 -4 -4 999.6 997.4
02 20.01 ЮВ 6
{13}
н/о н/о +1.8 -10.6 39 -3 -3 999.7 997.5
01 20.01 ЮВ 6
{14}
н/о н/о +1.2 -10.8 40 -4 -4 999.7 997.5

 

Местоположение метеостанции Tafjord (Норвегия): широта 62.23 долгота 7.42 высота над уровнем моря 11 м.

В архиве по умолчанию представлена погода в Tafjord за последнюю неделю. Архивные данные за месяц целиком и за предыдущие месяцы, начиная с января 2011 года, Вы можете получить, выбрав интересующий диапазон дат из раскрывающегося списка и нажав кнопку "Ввод!".

Внимание! Время в таблицах - всемирное. Для получения местного времени необходимо прибавить поправку, которая в Tafjord равна 1 ч.

Смотрите также архив погоды в соседних городах и на ближайших метеорологических станциях:

Погода в Grotli III (Норвегия) (26 км)
Погода в Mannen (Норвегия) (31 км)
Погода в Marstein (Норвегия) (33 км)
Погода в Bjorli (Норвегия) (41 км)
Погода в Lebergsfjellet (Норвегия) (43 км)
Погода в Brata (Норвегия) (44 км)
Погода в Stryn-Kroken (Норвегия) (57 км)
Погода в Rekdal (Норвегия) (58 км)
Погода в Molde Lufthavn (Норвегия) (58 км)
Погода в Alesund IV (Норвегия) (68 км)

Пояснения к столбцам:

Ветер - указаны скорость ветра в м/с - средняя за 10 мин, порывы в срок и между сроками (в фигурных скобках) и направление, откуда дует ветер: С - северный, СВ - северо-восточный, В - восточный, ЮВ - юго-восточный, Ю - южный, ЮЗ - юго-западный, З - западный, СЗ - северо-западный.
Видимость - горизонтальная дальность видимости в метрах или километрах. При видимости от 1 до 10 км при отсутствии осадков обычно наблюдается дымка, при ухудшении видимости до 1 км и менее - туман. В сухую погоду видимость может ухудшаться дымом, пылью или мглою.
Явления - указаны атмосферные явления, наблюдавшиеся в срок или в последний час перед сроком; фигурными скобками обозначены явления, наблюдавшиеся между сроками (за 1-3 часа до срока); квадратными скобками обозначены град или гололедные отложения с указанием их диаметра в мм.
Облачность - указаны через наклонную черту общая и нижняя облачность в баллах и высота нижней границы облаков в метрах; квадратными скобками обозначены формы облаков: Ci - перистые, Cs - перисто-слоистые, Cc - перисто-кучевые, Ac - высококучевые, As - высокослоистые, Sc - слоисто-кучевые, Ns - слоисто-дождевые, Cu - кучевые, Cb - кучево-дождевые. Подробнее классификацию облаков см. в Атласе облаков (PDF).
T - Температура воздуха - температура, измеренная на высоте 2 м над землей.
Td - Температура точки росы - температура, при понижении до которой содержащийся в воздухе водяной пар достигнет насыщения.
f - Относительная влажность воздуха - влажноcть воздуха, измеренная на высоте 2 м над землей.
Te - Эффективная температура - температура, которую ощущает одетый по сезону человек в тени. Характеристика душности погоды. При расчете учитывается влияние влажности воздуха и скорости ветра на теплоощущения человека.
Tes - Эффективная температура на солнце - температура, которую ощущает человек, с поправкой на солнечный нагрев. Характеристика знойности погоды. Зависит от высоты солнца над горизонтом, облачности и скорости ветра. Ночью, в пасмурную погоду, а также при ветре 12 м/с и более поправка равна нулю.
P - Атмосферное давление - приведенное к уровню моря атмосферное давление.
Po - Атмосферное давление - измеренное на уровне метеостанции атмосферное давление.
Tmin - Минимальная температура - минимум температуры воздуха на высоте 2 м над землей.
Tmax - Максимальная температура - максимум температуры воздуха на высоте 2 м над землей.
R - Количество осадков - Количество выпавших осадков за период времени, мм. При наведении курсора мыши на число - период времени, за который выпало указанное количество осадков.
R24 - Количество осадков - Количество выпавших осадков за 24 часа, мм.
S - Снежный покров - Высота снежного покрова, см. При наведении курсора мыши на число - состояние снежного покрова и степень покрытия местности в баллах.